Weather History for Mobile, AL

Change the Weather History Date:

Wednesday, August 21, 2013

  Actual Average Record
Temperature  
Mean Temperature 81 °F 82 °F  
Max Temperature 90 °F 91 °F 98 °F (1980)
Min Temperature 72 °F 73 °F 62 °F (1956)
Cooling Degree Days 16 17  
Month to date cooling degree days 352 357  
Year to date cooling degree days 1684 1768  
Since 1 June cooling degree days 1320 1323  
Growing Degree Days 31 (Base 50)    
Moisture  
Dew Point 72 °F    
Average Humidity 76    
Maximum Humidity 93    
Minimum Humidity 59    
Precipitation  
Precipitation 0.00 in 0.22 in 2.43 in (1934)
Month to date precipitation 9.56 5.03  
Year to date precipitation 51.31 45.23  
Sea Level Pressure  
Sea Level Pressure 30.09 in    
Wind  
Wind Speed 4 mph (ESE)    
Max Wind Speed 12 mph    
Max Gust Speed 16 mph    
Visibility 9 miles    
Events Rain , Thunderstorm    
T = Trace of Precipitation, MM = Missing Value Source: NWS Daily Summary

Daily Weather History Graph

Daily Weather History Graph

Search for Another Location

Airport:

Trip Planner

Search our weather history database for the weather conditions in past years. The results will help you decide how hot, cold, wet, or windy it might be!

Date:

Astronomy

Aug. 21, 2013 Rise Set
Actual Time 6:23 AM CDT 7:28 PM CDT
Civil Twilight 5:58 AM CDT 7:53 PM CDT
Nautical Twilight 5:28 AM CDT 8:22 PM CDT
Astronomical Twilight 4:57 AM CDT 8:53 PM CDT
Moon 7:46 PM CDT (8/21) 6:56 AM CDT (8/21)
Length of Visible Light 13h 55m
Length of Day
13h 05m
Waxing Gibbous, 99% of the Moon is Illuminated
Aug 21
Waxing Gibbous
Aug 28
Last Quarter
Sep 5
New
Sep 12
First Quarter
Sep 19
Full

Hourly Weather History & Observations

Time (CDT) Temp. Heat Index Dew Point Humidity Pressure Visibility Wind Dir Wind Speed Gust Speed Precip Events Conditions
12:56 AM 75.0 °F - 72.0 °F 90% 30.08 in 10.0 mi East 5.8 mph - N/A   Clear
1:56 AM 73.9 °F - 71.1 °F 91% 30.07 in 10.0 mi NE 3.5 mph - N/A   Clear
2:56 AM 73.9 °F - 71.1 °F 91% 30.07 in 10.0 mi East 4.6 mph - N/A   Clear
3:56 AM 73.9 °F - 71.1 °F 91% 30.07 in 10.0 mi East 4.6 mph - N/A   Clear
4:56 AM 73.0 °F - 70.0 °F 90% 30.07 in 10.0 mi Calm Calm - N/A   Clear
5:56 AM 73.0 °F - 71.1 °F 93% 30.10 in 7.0 mi ENE 5.8 mph - N/A   Mostly Cloudy
6:00 AM 73.4 °F - 71.6 °F 94% 30.11 in 6.0 mi ENE 5.8 mph - N/A   Mostly Cloudy
6:56 AM 73.9 °F - 71.1 °F 91% 30.12 in 6.0 mi East 4.6 mph - 0.01 in   Mostly Cloudy
7:56 AM 75.9 °F - 72.0 °F 87% 30.12 in 7.0 mi East 3.5 mph - N/A   Mostly Cloudy
8:56 AM 79.0 °F - 73.0 °F 82% 30.12 in 7.0 mi NE 3.5 mph - N/A   Mostly Cloudy
9:56 AM 82.0 °F 87.4 °F 73.0 °F 74% 30.14 in 7.0 mi SE 3.5 mph - N/A   Mostly Cloudy
10:56 AM 86.0 °F 93.8 °F 73.9 °F 67% 30.15 in 10.0 mi SE 4.6 mph - N/A   Mostly Cloudy
11:56 AM 86.0 °F 93.0 °F 73.0 °F 65% 30.14 in 10.0 mi ESE 6.9 mph - N/A   Mostly Cloudy
12:56 PM 89.1 °F 97.0 °F 73.0 °F 59% 30.11 in 10.0 mi ESE 5.8 mph - N/A   Mostly Cloudy
1:56 PM 88.0 °F 94.7 °F 72.0 °F 59% 30.10 in 10.0 mi ESE 3.5 mph - N/A   Mostly Cloudy
2:35 PM 89.6 °F 98.2 °F 73.4 °F 59% 30.09 in 10.0 mi SE 6.9 mph - N/A Thunderstorm Thunderstorm
2:56 PM 88.0 °F 94.7 °F 72.0 °F 59% 30.09 in 10.0 mi SE 8.1 mph - N/A Thunderstorm Thunderstorm
3:43 PM 89.6 °F 96.2 °F 71.6 °F 55% 30.07 in 10.0 mi SE 9.2 mph - N/A   Mostly Cloudy
3:56 PM 88.0 °F 93.8 °F 71.1 °F 57% 30.06 in 10.0 mi SSE 6.9 mph - N/A   Mostly Cloudy
4:56 PM 86.0 °F 92.2 °F 72.0 °F 63% 30.07 in 10.0 mi SE 4.6 mph - N/A   Mostly Cloudy
5:32 PM 84.2 °F 89.6 °F 71.6 °F 66% 30.08 in 10.0 mi SE 6.9 mph - N/A Thunderstorm Thunderstorm
5:56 PM 84.9 °F 91.4 °F 73.0 °F 67% 30.07 in 10.0 mi SE 5.8 mph - N/A Thunderstorm Thunderstorm
6:56 PM 82.9 °F 88.0 °F 72.0 °F 69% 30.08 in 10.0 mi SSE 4.6 mph - N/A Thunderstorm Thunderstorm
7:28 PM 80.6 °F 85.4 °F 73.4 °F 79% 30.07 in 10.0 mi Calm Calm - N/A   Mostly Cloudy
7:56 PM 81.0 °F 85.2 °F 72.0 °F 74% 30.06 in 10.0 mi ESE 6.9 mph - N/A   Mostly Cloudy
8:56 PM 78.1 °F - 72.0 °F 81% 30.10 in 10.0 mi East 4.6 mph - N/A   Mostly Cloudy
9:56 PM 75.9 °F - 70.0 °F 82% 30.10 in 10.0 mi ENE 3.5 mph - N/A   Scattered Clouds
10:56 PM 75.0 °F - 70.0 °F 84% 30.11 in 10.0 mi ESE 3.5 mph - N/A   Scattered Clouds
11:56 PM 73.9 °F - 70.0 °F 87% 30.12 in 10.0 mi Calm Calm - N/A   Clear